| time (UTC) | temp F | wind direction | speed MPH | gust MPH | rain 1hr in | rain 24hr in | rain mn in | humidity % | barometer mb |
| 20260510111048 | 70 | 0 | 0.0 | 1.0 | 0.00 | 0.15 | 0.00 | 96 | 1015.9 |
| 20260510110546 | 69 | 0 | 0.0 | 1.0 | 0.00 | 0.15 | 0.00 | 96 | 1016.0 |
| 20260510110051 | 69 | 0 | 0.0 | 1.0 | 0.00 | 0.15 | 0.00 | 96 | 1015.6 |
| 20260510105545 | 69 | 0 | 0.0 | 1.0 | 0.00 | 0.15 | 0.00 | 96 | 1015.7 |
| 20260510105045 | 69 | 0 | 0.0 | 1.0 | 0.00 | 0.15 | 0.00 | 96 | 1015.5 |
| 20260510104602 | 70 | 61 | 0.0 | 1.0 | 0.00 | 0.15 | 0.00 | 96 | 1015.5 |
| 20260510104046 | 69 | 0 | 0.0 | 0.0 | 0.00 | 0.15 | 0.00 | 96 | 1015.6 |
| 20260510103544 | 69 | 0 | 0.0 | 0.0 | 0.00 | 0.15 | 0.00 | 96 | 1015.5 |
| 20260510103048 | 70 | 0 | 0.0 | 0.0 | 0.00 | 0.15 | 0.00 | 96 | 1015.5 |
| 20260510102544 | 70 | 0 | 0.0 | 0.0 | 0.00 | 0.15 | 0.00 | 96 | 1015.3 |
| 20260510102045 | 70 | 0 | 0.0 | 0.0 | 0.00 | 0.15 | 0.00 | 96 | 1015.3 |
| 20260510101551 | 70 | 0 | 0.0 | 0.0 | 0.00 | 0.15 | 0.00 | 96 | 1015.3 |
| 20260510101044 | 70 | 0 | 0.0 | 0.0 | 0.00 | 0.15 | 0.00 | 96 | 1015.3 |
| 20260510100548 | 70 | 0 | 0.0 | 0.0 | 0.00 | 0.15 | 0.00 | 96 | 1015.4 |
| 20260510100045 | 70 | 0 | 0.0 | 0.0 | 0.00 | 0.15 | 0.00 | 96 | 1015.3 |
| 20260510095545 | 70 | 0 | 0.0 | 0.0 | 0.00 | 0.15 | 0.00 | 96 | 1015.2 |
| 20260510095048 | 70 | 0 | 0.0 | 1.0 | 0.00 | 0.15 | 0.00 | 96 | 1015.1 |
| 20260510094600 | 70 | 0 | 0.0 | 1.0 | 0.00 | 0.15 | 0.00 | 96 | 1015.2 |
| 20260510094045 | 70 | 61 | 0.0 | 1.0 | 0.00 | 0.15 | 0.00 | 96 | 1015.1 |
| 20260510093545 | 69 | 0 | 0.0 | 0.0 | 0.00 | 0.15 | 0.00 | 95 | 1015.0 |
| 20260510093055 | 70 | 0 | 0.0 | 0.0 | 0.00 | 0.15 | 0.00 | 95 | 1015.0 |
| 20260510092545 | 70 | 0 | 0.0 | 0.0 | 0.00 | 0.15 | 0.00 | 95 | 1014.8 |
| 20260510092048 | 70 | 0 | 0.0 | 0.0 | 0.00 | 0.15 | 0.00 | 95 | 1014.9 |
| 20260510091605 | 70 | 0 | 0.0 | 0.0 | 0.00 | 0.15 | 0.00 | 95 | 1014.8 |
| 20260510091044 | 70 | 0 | 0.0 | 0.0 | 0.00 | 0.15 | 0.00 | 95 | 1014.7 |
| 20260510090543 | 70 | 0 | 0.0 | 0.0 | 0.00 | 0.15 | 0.00 | 95 | 1014.6 |
| 20260510085547 | 70 | 0 | 0.0 | 0.0 | 0.00 | 0.15 | 0.00 | 95 | 1014.6 |
| 20260510085045 | 70 | 0 | 0.0 | 0.0 | 0.00 | 0.15 | 0.00 | 95 | 1014.4 |
| 20260510084557 | 70 | 0 | 0.0 | 1.0 | 0.00 | 0.15 | 0.00 | 95 | 1014.4 |
| 20260510084044 | 70 | 0 | 0.0 | 1.0 | 0.00 | 0.15 | 0.00 | 95 | 1014.4 |
| 20260510083545 | 70 | 61 | 0.0 | 1.0 | 0.00 | 0.15 | 0.00 | 95 | 1014.4 |
| 20260510083054 | 70 | 0 | 0.0 | 1.0 | 0.00 | 0.15 | 0.00 | 95 | 1014.3 |
| 20260510082544 | 70 | 0 | 0.0 | 1.0 | 0.00 | 0.15 | 0.00 | 95 | 1014.3 |
| 20260510082045 | 70 | 61 | 0.0 | 1.0 | 0.00 | 0.15 | 0.00 | 95 | 1014.3 |
| 20260510081600 | 70 | 60 | 0.0 | 1.0 | 0.00 | 0.15 | 0.00 | 96 | 1014.3 |
| 20260510081045 | 70 | 60 | 0.0 | 1.0 | 0.00 | 0.15 | 0.00 | 95 | 1014.4 |
| 20260510080545 | 70 | 60 | 0.0 | 1.0 | 0.00 | 0.15 | 0.00 | 95 | 1014.4 |
| 20260510080057 | 70 | 0 | 0.0 | 0.0 | 0.00 | 0.15 | 0.00 | 95 | 1014.4 |
| 20260510075544 | 70 | 0 | 0.0 | 0.0 | 0.00 | 0.15 | 0.00 | 95 | 1014.5 |
| 20260510075044 | 70 | 0 | 0.0 | 0.0 | 0.00 | 0.15 | 0.00 | 95 | 1014.3 |
| 20260510074553 | 70 | 0 | 0.0 | 0.0 | 0.00 | 0.15 | 0.00 | 95 | 1014.3 |
| 20260510074047 | 70 | 0 | 0.0 | 0.0 | 0.00 | 0.15 | 0.00 | 95 | 1014.3 |
| 20260510073545 | 71 | 0 | 0.0 | 0.0 | 0.00 | 0.15 | 0.00 | 95 | 1014.2 |
| 20260510073055 | 71 | 0 | 0.0 | 0.0 | 0.00 | 0.15 | 0.00 | 95 | 1014.1 |
| 20260510072544 | 71 | 0 | 0.0 | 1.0 | 0.00 | 0.15 | 0.00 | 95 | 1014.2 |
| 20260510072045 | 71 | 0 | 0.0 | 1.0 | 0.00 | 0.15 | 0.00 | 95 | 1014.1 |
| 20260510071552 | 71 | 0 | 0.0 | 1.0 | 0.00 | 0.15 | 0.00 | 95 | 1014.0 |
| 20260510071044 | 71 | 0 | 0.0 | 1.0 | 0.00 | 0.15 | 0.00 | 95 | 1013.9 |
| 20260510070546 | 71 | 0 | 0.0 | 1.0 | 0.00 | 0.15 | 0.00 | 95 | 1013.9 |
| 20260510065545 | 71 | 0 | 0.0 | 1.0 | 0.00 | 0.15 | 0.00 | 95 | 1014.0 |
| 20260510065045 | 71 | 102 | 0.0 | 1.0 | 0.00 | 0.15 | 0.00 | 95 | 1014.0 |
| 20260510064607 | 71 | 0 | 0.0 | 1.0 | 0.00 | 0.15 | 0.00 | 95 | 1014.1 |
| 20260510064045 | 71 | 0 | 0.0 | 1.0 | 0.00 | 0.15 | 0.00 | 95 | 1014.2 |
| 20260510063545 | 71 | 187 | 0.0 | 1.0 | 0.00 | 0.15 | 0.00 | 95 | 1014.3 |
| 20260510063052 | 71 | 0 | 0.0 | 3.0 | 0.00 | 0.15 | 0.00 | 95 | 1014.3 |
| 20260510062547 | 71 | 97 | 0.0 | 3.0 | 0.00 | 0.15 | 0.00 | 95 | 1014.3 |
| 20260510062045 | 71 | 60 | 0.0 | 2.0 | 0.00 | 0.15 | 0.00 | 95 | 1014.4 |
| 20260510061553 | 71 | 43 | 1.0 | 2.0 | 0.00 | 0.15 | 0.00 | 95 | 1014.3 |
| 20260510061048 | 71 | 122 | 0.0 | 1.0 | 0.00 | 0.15 | 0.00 | 95 | 1014.4 |
| 20260510060548 | 71 | 97 | 0.0 | 1.0 | 0.00 | 0.15 | 0.00 | 95 | 1014.6 |
| 20260510060046 | 71 | 0 | 0.0 | 1.0 | 0.00 | 0.15 | 0.00 | 95 | 1014.7 |
| 20260510055544 | 71 | 11 | 0.0 | 1.0 | 0.00 | 0.15 | 0.00 | 95 | 1014.8 |
| 20260510055044 | 70 | 10 | 0.0 | 1.0 | 0.00 | 0.15 | 0.00 | 95 | 1014.9 |
| 20260510054549 | 70 | 0 | 0.0 | 1.0 | 0.00 | 0.15 | 0.00 | 95 | 1015.0 |
| 20260510054046 | 70 | 0 | 0.0 | 0.0 | 0.00 | 0.15 | 0.00 | 95 | 1015.1 |
| 20260510053545 | 70 | 0 | 0.0 | 1.0 | 0.00 | 0.15 | 0.00 | 95 | 1015.1 |
| 20260510053050 | 71 | 0 | 0.0 | 1.0 | 0.00 | 0.15 | 0.00 | 95 | 1015.1 |
| 20260510052545 | 71 | 110 | 0.0 | 0.0 | 0.00 | 0.15 | 0.00 | 95 | 1015.1 |
| 20260510052047 | 71 | 153 | 0.0 | 1.0 | 0.00 | 0.15 | 0.00 | 95 | 1015.3 |
| 20260510051547 | 71 | 0 | 0.0 | 1.0 | 0.00 | 0.15 | 0.00 | 95 | 1015.4 |
| 20260510051045 | 71 | 0 | 0.0 | 1.0 | 0.00 | 0.15 | 0.00 | 95 | 1015.5 |
| 20260510050547 | 70 | 157 | 0.0 | 1.0 | 0.00 | 0.15 | 0.00 | 95 | 1015.7 |
| 20260510050052 | 70 | 0 | 0.0 | 0.0 | 0.00 | 0.15 | 0.00 | 95 | 1015.7 |
| 20260510045545 | 70 | 0 | 0.0 | 1.0 | 0.00 | 0.16 | 0.00 | 95 | 1015.8 |
| 20260510045045 | 70 | 0 | 0.0 | 1.0 | 0.00 | 0.16 | 0.00 | 95 | 1015.8 |
| 20260510044602 | 70 | 0 | 0.0 | 1.0 | 0.00 | 0.16 | 0.00 | 95 | 1015.9 |
| 20260510044044 | 70 | 0 | 0.0 | 1.0 | 0.00 | 0.16 | 0.00 | 95 | 1015.9 |
| 20260510043546 | 70 | 0 | 0.0 | 1.0 | 0.00 | 0.16 | 0.00 | 95 | 1015.8 |
| 20260510043051 | 71 | 105 | 0.0 | 1.0 | 0.00 | 0.16 | 0.00 | 95 | 1015.8 |
| 20260510042547 | 71 | 0 | 0.0 | 1.0 | 0.00 | 0.16 | 0.00 | 95 | 1015.8 |
| 20260510042043 | 71 | 0 | 0.0 | 1.0 | 0.00 | 0.16 | 0.00 | 95 | 1015.8 |
| 20260510041559 | 71 | 0 | 0.0 | 1.0 | 0.00 | 0.16 | 0.00 | 95 | 1015.8 |
| 20260510041046 | 71 | 0 | 0.0 | 1.0 | 0.00 | 0.16 | 0.00 | 95 | 1015.9 |
| 20260510040543 | 71 | 105 | 0.0 | 1.0 | 0.00 | 0.16 | 0.00 | 95 | 1015.8 |
| 20260510040051 | 71 | 105 | 0.0 | 1.0 | 0.00 | 0.16 | 0.00 | 94 | 1015.8 |
| 20260510035543 | 71 | 0 | 0.0 | 2.0 | 0.00 | 0.18 | 0.16 | 94 | 1015.9 |
| 20260510035044 | 71 | 105 | 0.0 | 2.0 | 0.00 | 0.18 | 0.16 | 94 | 1015.7 |
| 20260510034557 | 71 | 105 | 1.0 | 2.0 | 0.00 | 0.18 | 0.16 | 94 | 1015.8 |
| 20260510034044 | 71 | 41 | 0.0 | 1.0 | 0.00 | 0.18 | 0.16 | 94 | 1015.8 |
| 20260510033546 | 71 | 0 | 0.0 | 1.0 | 0.00 | 0.18 | 0.16 | 94 | 1015.9 |
| 20260510033051 | 71 | 64 | 0.0 | 1.0 | 0.00 | 0.18 | 0.16 | 94 | 1015.9 |
| 20260510032547 | 71 | 64 | 0.0 | 2.0 | 0.00 | 0.18 | 0.16 | 94 | 1015.9 |
| 20260510032044 | 71 | 0 | 0.0 | 2.0 | 0.00 | 0.18 | 0.16 | 94 | 1016.0 |
| 20260510031551 | 71 | 219 | 0.0 | 2.0 | 0.00 | 0.18 | 0.16 | 94 | 1016.1 |
| 20260510031046 | 71 | 120 | 0.0 | 2.0 | 0.00 | 0.18 | 0.16 | 94 | 1016.0 |
| 20260510030543 | 71 | 186 | 0.0 | 1.0 | 0.00 | 0.18 | 0.16 | 94 | 1016.0 |
| 20260510030057 | 71 | 103 | 0.0 | 1.0 | 0.00 | 0.18 | 0.16 | 94 | 1015.9 |
| 20260510025543 | 71 | 102 | 0.0 | 1.0 | 0.00 | 0.18 | 0.16 | 94 | 1015.9 |
| 20260510025045 | 71 | 0 | 0.0 | 1.0 | 0.00 | 0.18 | 0.16 | 94 | 1015.8 |
| 20260510024552 | 71 | 90 | 0.0 | 2.0 | 0.00 | 0.18 | 0.16 | 94 | 1015.6 |
| 20260510024045 | 71 | 18 | 0.0 | 2.0 | 0.00 | 0.18 | 0.16 | 94 | 1015.6 |
| 20260510023548 | 71 | 0 | 0.0 | 2.0 | 0.00 | 0.18 | 0.16 | 94 | 1015.4 |
| 20260510023048 | 71 | 210 | 0.0 | 2.0 | 0.00 | 0.18 | 0.16 | 94 | 1015.5 |
| 20260510022544 | 71 | 66 | 1.0 | 2.0 | 0.00 | 0.18 | 0.16 | 94 | 1015.0 |
| 20260510022047 | 71 | 0 | 0.0 | 2.0 | 0.00 | 0.18 | 0.16 | 94 | 1015.1 |
| 20260510021548 | 71 | 67 | 0.0 | 2.0 | 0.00 | 0.18 | 0.16 | 94 | 1014.9 |
| 20260510021042 | 71 | 63 | 0.0 | 1.0 | 0.00 | 0.18 | 0.16 | 94 | 1015.0 |
| 20260510020543 | 71 | 189 | 0.0 | 2.0 | 0.00 | 0.18 | 0.16 | 94 | 1015.1 |
| 20260510020047 | 71 | 191 | 0.0 | 2.0 | 0.00 | 0.18 | 0.16 | 94 | 1015.1 |
| 20260510015544 | 71 | 60 | 1.0 | 2.0 | 0.00 | 0.18 | 0.16 | 94 | 1014.7 |
| 20260510015043 | 71 | 103 | 1.0 | 1.0 | 0.00 | 0.18 | 0.16 | 94 | 1014.5 |
| 20260510014550 | 71 | 105 | 0.0 | 1.0 | 0.00 | 0.18 | 0.16 | 94 | 1014.6 |
| 20260510014043 | 71 | 0 | 0.0 | 1.0 | 0.00 | 0.18 | 0.16 | 94 | 1014.4 |
| 20260510013543 | 71 | 105 | 0.0 | 1.0 | 0.00 | 0.18 | 0.16 | 94 | 1014.3 |
| 20260510013058 | 71 | 0 | 0.0 | 2.0 | 0.00 | 0.18 | 0.16 | 94 | 1014.3 |
| 20260510012543 | 71 | 105 | 0.0 | 2.0 | 0.00 | 0.18 | 0.16 | 94 | 1014.3 |
| 20260510012043 | 71 | 122 | 1.0 | 2.0 | 0.00 | 0.18 | 0.16 | 94 | 1014.4 |
| 20260510011548 | 71 | 145 | 0.0 | 1.0 | 0.00 | 0.18 | 0.16 | 94 | 1014.4 |
| 20260510011043 | 71 | 0 | 0.0 | 1.0 | 0.00 | 0.18 | 0.16 | 94 | 1014.3 |
| 20260510010543 | 71 | 0 | 0.0 | 1.0 | 0.01 | 0.18 | 0.16 | 94 | 1014.2 |
| 20260510010050 | 71 | 63 | 0.0 | 1.0 | 0.01 | 0.18 | 0.16 | 93 | 1014.2 |
| 20260510005543 | 71 | 0 | 0.0 | 1.0 | 0.01 | 0.18 | 0.16 | 93 | 1014.3 |
| 20260510005043 | 71 | 0 | 0.0 | 2.0 | 0.02 | 0.18 | 0.16 | 93 | 1014.1 |
| 20260510004550 | 71 | 0 | 0.0 | 2.0 | 0.02 | 0.18 | 0.16 | 93 | 1014.2 |
| 20260510004043 | 71 | 77 | 1.0 | 2.0 | 0.02 | 0.18 | 0.16 | 93 | 1014.2 |
| 20260510003553 | 71 | 103 | 1.0 | 2.0 | 0.02 | 0.18 | 0.16 | 93 | 1014.2 |
| 20260510003056 | 71 | 98 | 0.0 | 1.0 | 0.02 | 0.18 | 0.16 | 93 | 1014.2 |
| 20260510002542 | 71 | 0 | 0.0 | 0.0 | 0.02 | 0.18 | 0.16 | 93 | 1014.4 |
| 20260510002043 | 71 | 0 | 0.0 | 0.0 | 0.02 | 0.18 | 0.16 | 93 | 1014.5 |
| 20260510001551 | 72 | 0 | 0.0 | 1.0 | 0.02 | 0.18 | 0.16 | 93 | 1014.4 |
| 20260510001043 | 72 | 0 | 0.0 | 1.0 | 0.02 | 0.18 | 0.16 | 93 | 1014.6 |
| 20260510000543 | 72 | 244 | 0.0 | 1.0 | 0.01 | 0.17 | 0.15 | 93 | 1014.7 |
| 20260510000057 | 72 | 0 | 0.0 | 1.0 | 0.01 | 0.17 | 0.15 | 93 | 1014.6 |
| 20260509235543 | 72 | 0 | 0.0 | 1.0 | 0.01 | 0.17 | 0.15 | 93 | 1014.6 |
| 20260509235042 | 72 | 0 | 0.0 | 1.0 | 0.00 | 0.16 | 0.14 | 93 | 1014.7 |
| 20260509234604 | 72 | 278 | 0.0 | 1.0 | 0.00 | 0.16 | 0.14 | 92 | 1014.6 |
| 20260509234044 | 72 | 0 | 0.0 | 1.0 | 0.00 | 0.16 | 0.14 | 92 | 1014.5 |
| 20260509233542 | 72 | 0 | 0.0 | 0.0 | 0.00 | 0.16 | 0.14 | 92 | 1014.4 |
| 20260509233056 | 72 | 0 | 0.0 | 0.0 | 0.00 | 0.16 | 0.14 | 92 | 1014.5 |
| 20260509232543 | 72 | 0 | 0.0 | 0.0 | 0.00 | 0.16 | 0.14 | 92 | 1014.5 |
| 20260509232043 | 72 | 0 | 0.0 | 0.0 | 0.00 | 0.16 | 0.14 | 92 | 1014.4 |
| 20260509231608 | 72 | 307 | 0.0 | 4.0 | 0.00 | 0.16 | 0.14 | 92 | 1014.3 |
| 20260509231048 | 72 | 307 | 0.0 | 4.0 | 0.00 | 0.16 | 0.14 | 92 | 1014.4 |
| 20260509230543 | 72 | 30 | 2.0 | 6.0 | 0.01 | 0.16 | 0.14 | 92 | 1014.4 |
| 20260509230104 | 72 | 4 | 2.0 | 6.0 | 0.02 | 0.16 | 0.14 | 92 | 1014.3 |
| 20260509225544 | 73 | 349 | 0.0 | 4.0 | 0.03 | 0.16 | 0.14 | 92 | 1014.3 |
| 20260509225042 | 73 | 348 | 2.0 | 4.0 | 0.03 | 0.16 | 0.14 | 92 | 1014.2 |
| 20260509224554 | 73 | 333 | 0.0 | 4.0 | 0.03 | 0.16 | 0.14 | 92 | 1014.3 |
| 20260509224048 | 73 | 193 | 0.0 | 4.0 | 0.04 | 0.16 | 0.14 | 92 | 1014.3 |
| 20260509223543 | 73 | 15 | 1.0 | 4.0 | 0.04 | 0.16 | 0.14 | 91 | 1014.1 |
| 20260509223049 | 73 | 53 | 1.0 | 4.0 | 0.04 | 0.16 | 0.14 | 92 | 1014.2 |
| 20260509222545 | 73 | 55 | 0.0 | 3.0 | 0.04 | 0.16 | 0.14 | 92 | 1014.3 |
| 20260509222044 | 73 | 313 | 0.0 | 3.0 | 0.04 | 0.16 | 0.14 | 91 | 1014.3 |
| 20260509221549 | 73 | 300 | 1.0 | 3.0 | 0.04 | 0.16 | 0.14 | 91 | 1014.4 |
| 20260509221048 | 73 | 281 | 2.0 | 3.0 | 0.04 | 0.16 | 0.14 | 91 | 1014.1 |
| 20260509220545 | 73 | 255 | 1.0 | 3.0 | 0.03 | 0.15 | 0.13 | 90 | 1014.2 |
| 20260509220051 | 74 | 299 | 0.0 | 3.0 | 0.02 | 0.14 | 0.12 | 90 | 1014.2 |
| 20260509215544 | 74 | 0 | 1.0 | 3.0 | 0.01 | 0.13 | 0.11 | 90 | 1014.2 |
| 20260509215046 | 74 | 300 | 1.0 | 3.0 | 0.01 | 0.13 | 0.11 | 90 | 1014.2 |
| 20260509214550 | 74 | 267 | 0.0 | 2.0 | 0.01 | 0.13 | 0.11 | 89 | 1014.1 |
| 20260509214044 | 74 | 317 | 0.0 | 3.0 | 0.00 | 0.12 | 0.10 | 89 | 1014.0 |
| 20260509213545 | 74 | 20 | 1.0 | 3.0 | 0.00 | 0.12 | 0.10 | 89 | 1013.8 |
| 20260509213057 | 75 | 11 | 1.0 | 5.0 | 0.00 | 0.12 | 0.10 | 89 | 1014.0 |
| 20260509212541 | 75 | 0 | 1.0 | 5.0 | 0.00 | 0.12 | 0.10 | 89 | 1014.0 |
| 20260509212047 | 75 | 288 | 2.0 | 5.0 | 0.00 | 0.12 | 0.10 | 88 | 1014.0 |
| 20260509211558 | 75 | 14 | 0.0 | 2.0 | 0.00 | 0.12 | 0.10 | 89 | 1013.9 |
| 20260509211043 | 75 | 316 | 0.0 | 2.0 | 0.00 | 0.12 | 0.10 | 88 | 1013.9 |
| 20260509210544 | 76 | 272 | 0.0 | 2.0 | 0.00 | 0.12 | 0.10 | 88 | 1013.9 |
| 20260509210108 | 75 | 274 | 0.0 | 5.0 | 0.00 | 0.12 | 0.10 | 88 | 1013.9 |
| 20260509205549 | 75 | 267 | 0.0 | 5.0 | 0.00 | 0.12 | 0.10 | 89 | 1013.9 |
| 20260509205045 | 75 | 281 | 2.0 | 4.0 | 0.00 | 0.12 | 0.10 | 89 | 1013.9 |
| 20260509204555 | 76 | 293 | 1.0 | 3.0 | 0.00 | 0.12 | 0.10 | 89 | 1013.8 |
| 20260509204044 | 76 | 0 | 0.0 | 2.0 | 0.05 | 0.12 | 0.10 | 90 | 1013.8 |
| 20260509203548 | 75 | 0 | 1.0 | 2.0 | 0.06 | 0.12 | 0.10 | 90 | 1013.7 |
| 20260509203100 | 75 | 290 | 1.0 | 2.0 | 0.06 | 0.12 | 0.10 | 89 | 1013.7 |
| 20260509202548 | 75 | 233 | 0.0 | 1.0 | 0.06 | 0.12 | 0.10 | 89 | 1013.6 |
| 20260509202047 | 75 | 165 | 0.0 | 1.0 | 0.06 | 0.12 | 0.10 | 89 | 1013.7 |
| 20260509201559 | 75 | 197 | 0.0 | 1.0 | 0.06 | 0.12 | 0.10 | 88 | 1013.7 |
| 20260509201045 | 75 | 240 | 0.0 | 1.0 | 0.06 | 0.12 | 0.10 | 89 | 1013.8 |
| 20260509200545 | 75 | 316 | 0.0 | 3.0 | 0.06 | 0.12 | 0.10 | 90 | 1013.7 |
| 20260509195548 | 75 | 179 | 0.0 | 5.0 | 0.07 | 0.12 | 0.10 | 89 | 1013.7 |
| 20260509195044 | 75 | 260 | 1.0 | 6.0 | 0.07 | 0.12 | 0.10 | 89 | 1013.7 |
| 20260509194548 | 76 | 353 | 2.0 | 6.0 | 0.08 | 0.12 | 0.10 | 87 | 1013.6 |
| 20260509194047 | 77 | 302 | 1.0 | 2.0 | 0.03 | 0.07 | 0.05 | 87 | 1013.8 |
| 20260509193544 | 77 | 271 | 1.0 | 1.0 | 0.03 | 0.06 | 0.04 | 87 | 1013.8 |
| 20260509193056 | 77 | 332 | 0.0 | 1.0 | 0.03 | 0.06 | 0.04 | 87 | 1013.9 |
| 20260509192544 | 77 | 265 | 0.0 | 1.0 | 0.03 | 0.06 | 0.04 | 86 | 1013.8 |
| 20260509192044 | 78 | 265 | 0.0 | 1.0 | 0.03 | 0.06 | 0.04 | 86 | 1013.8 |
| 20260509191555 | 78 | 272 | 0.0 | 1.0 | 0.03 | 0.06 | 0.04 | 88 | 1013.8 |
| 20260509191042 | 78 | 272 | 0.0 | 1.0 | 0.03 | 0.06 | 0.04 | 84 | 1013.6 |
| 20260509190547 | 78 | 0 | 0.0 | 1.0 | 0.03 | 0.06 | 0.04 | 87 | 1013.7 |
| 20260509190108 | 78 | 197 | 0.0 | 0.0 | 0.03 | 0.06 | 0.04 | 88 | 1013.6 |
| 20260509185543 | 78 | 197 | 0.0 | 0.0 | 0.02 | 0.05 | 0.03 | 86 | 1013.8 |
| 20260509185042 | 79 | 195 | 0.0 | 0.0 | 0.02 | 0.05 | 0.03 | 85 | 1013.6 |
| 20260509184557 | 79 | 0 | 0.0 | 1.0 | 0.01 | 0.04 | 0.02 | 83 | 1013.8 |
| 20260509184043 | 79 | 195 | 0.0 | 1.0 | 0.01 | 0.04 | 0.02 | 82 | 1013.8 |
| 20260509183545 | 80 | 195 | 1.0 | 2.0 | 0.00 | 0.03 | 0.01 | 80 | 1014.0 |
| 20260509183047 | 80 | 0 | 0.0 | 2.0 | 0.00 | 0.03 | 0.01 | 78 | 1014.0 |
| 20260509182542 | 81 | 218 | 1.0 | 2.0 | 0.00 | 0.03 | 0.01 | 74 | 1014.1 |
| 20260509182041 | 81 | 203 | 0.0 | 1.0 | 0.00 | 0.03 | 0.01 | 74 | 1014.0 |
| 20260509181555 | 81 | 221 | 0.0 | 2.0 | 0.00 | 0.03 | 0.01 | 72 | 1014.1 |
| 20260509181042 | 81 | 155 | 0.0 | 4.0 | 0.00 | 0.03 | 0.01 | 74 | 1014.3 |
| 20260509180542 | 81 | 180 | 2.0 | 4.0 | 0.00 | 0.03 | 0.01 | 73 | 1014.1 |
| 20260509180100 | 81 | 193 | 1.0 | 4.0 | 0.00 | 0.03 | 0.01 | 73 | 1014.2 |
| 20260509175541 | 82 | 199 | 1.0 | 2.0 | 0.00 | 0.03 | 0.01 | 73 | 1014.2 |
| 20260509175041 | 82 | 279 | 1.0 | 6.0 | 0.00 | 0.03 | 0.01 | 73 | 1014.3 |
| 20260509174555 | 81 | 280 | 2.0 | 6.0 | 0.00 | 0.03 | 0.01 | 72 | 1014.2 |
| 20260509174042 | 81 | 243 | 2.0 | 5.0 | 0.00 | 0.03 | 0.01 | 73 | 1014.4 |
| 20260509173541 | 82 | 231 | 3.0 | 5.0 | 0.00 | 0.03 | 0.01 | 70 | 1014.4 |
| 20260509173057 | 82 | 255 | 1.0 | 3.0 | 0.00 | 0.03 | 0.01 | 73 | 1014.3 |
| 20260509172545 | 81 | 206 | 1.0 | 4.0 | 0.00 | 0.03 | 0.01 | 73 | 1014.2 |
| 20260509172045 | 81 | 240 | 1.0 | 4.0 | 0.00 | 0.03 | 0.01 | 73 | 1014.2 |
| 20260509171555 | 81 | 205 | 2.0 | 6.0 | 0.00 | 0.03 | 0.01 | 73 | 1014.1 |
| 20260509171041 | 80 | 151 | 1.0 | 6.0 | 0.00 | 0.03 | 0.01 | 74 | 1014.2 |
| 20260509170544 | 80 | 141 | 1.0 | 5.0 | 0.00 | 0.03 | 0.01 | 75 | 1014.3 |
| 20260509165545 | 81 | 231 | 1.0 | 3.0 | 0.00 | 0.03 | 0.01 | 74 | 1014.3 |
| 20260509165041 | 80 | 113 | 0.0 | 2.0 | 0.00 | 0.03 | 0.01 | 76 | 1014.4 |
| 20260509164551 | 80 | 214 | 0.0 | 2.0 | 0.00 | 0.03 | 0.01 | 76 | 1014.4 |
| 20260509164042 | 79 | 297 | 1.0 | 2.0 | 0.00 | 0.03 | 0.01 | 75 | 1014.5 |
| 20260509163542 | 79 | 222 | 1.0 | 2.0 | 0.00 | 0.03 | 0.01 | 76 | 1014.5 |
| 20260509163104 | 79 | 291 | 1.0 | 3.0 | 0.00 | 0.03 | 0.01 | 77 | 1014.5 |
| 20260509162545 | 79 | 198 | 1.0 | 3.0 | 0.00 | 0.03 | 0.01 | 76 | 1014.5 |
| 20260509162045 | 79 | 95 | 1.0 | 3.0 | 0.00 | 0.03 | 0.01 | 77 | 1014.5 |
| 20260509161556 | 79 | 135 | 1.0 | 4.0 | 0.00 | 0.03 | 0.01 | 77 | 1014.6 |
| 20260509161045 | 79 | 286 | 1.0 | 4.0 | 0.00 | 0.03 | 0.01 | 78 | 1014.5 |
| 20260509160543 | 79 | 160 | 1.0 | 3.0 | 0.00 | 0.03 | 0.01 | 78 | 1014.6 |
| 20260509160049 | 79 | 247 | 1.0 | 3.0 | 0.00 | 0.03 | 0.01 | 77 | 1015.1 |
| 20260509155541 | 79 | 0 | 1.0 | 3.0 | 0.00 | 0.03 | 0.01 | 78 | 1014.8 |
| 20260509155045 | 78 | 203 | 1.0 | 3.0 | 0.00 | 0.03 | 0.01 | 78 | 1014.8 |
| 20260509154605 | 78 | 0 | 1.0 | 4.0 | 0.00 | 0.03 | 0.01 | 79 | 1014.9 |
| 20260509154042 | 78 | 243 | 2.0 | 4.0 | 0.00 | 0.03 | 0.01 | 78 | 1014.8 |
| 20260509153543 | 78 | 214 | 2.0 | 4.0 | 0.00 | 0.03 | 0.01 | 79 | 1014.6 |
| 20260509153053 | 78 | 190 | 1.0 | 3.0 | 0.00 | 0.03 | 0.01 | 79 | 1014.5 |
| 20260509152543 | 78 | 299 | 0.0 | 3.0 | 0.00 | 0.03 | 0.01 | 79 | 1014.4 |
| 20260509152044 | 78 | 330 | 1.0 | 3.0 | 0.00 | 0.03 | 0.01 | 79 | 1014.5 |
| 20260509151552 | 78 | 146 | 0.0 | 3.0 | 0.00 | 0.03 | 0.01 | 80 | 1014.5 |
| 20260509151043 | 77 | 186 | 1.0 | 4.0 | 0.00 | 0.03 | 0.01 | 80 | 1014.7 |
| 20260509150544 | 77 | 215 | 1.0 | 4.0 | 0.00 | 0.03 | 0.01 | 79 | 1014.6 |
| 20260509150104 | 78 | 149 | 1.0 | 5.0 | 0.00 | 0.03 | 0.01 | 79 | 1015.1 |
| 20260509145547 | 78 | 175 | 1.0 | 5.0 | 0.00 | 0.03 | 0.01 | 80 | 1015.2 |
| 20260509145042 | 78 | 231 | 1.0 | 4.0 | 0.00 | 0.03 | 0.01 | 79 | 1014.9 |
| 20260509144556 | 78 | 317 | 1.0 | 3.0 | 0.00 | 0.03 | 0.01 | 81 | 1014.9 |
| 20260509144045 | 77 | 153 | 0.0 | 4.0 | 0.00 | 0.03 | 0.01 | 82 | 1014.8 |
| 20260509143543 | 77 | 90 | 1.0 | 8.0 | 0.00 | 0.03 | 0.01 | 82 | 1014.6 |
| 20260509143055 | 76 | 72 | 2.0 | 8.0 | 0.00 | 0.03 | 0.01 | 82 | 1014.8 |
| 20260509142542 | 76 | 203 | 4.0 | 8.0 | 0.00 | 0.03 | 0.01 | 81 | 1014.6 |
| 20260509142042 | 77 | 115 | 2.0 | 5.0 | 0.00 | 0.03 | 0.01 | 81 | 1014.5 |
| 20260509141552 | 76 | 336 | 2.0 | 5.0 | 0.00 | 0.03 | 0.01 | 81 | 1014.5 |
| 20260509141044 | 76 | 219 | 1.0 | 4.0 | 0.00 | 0.03 | 0.01 | 83 | 1014.5 |
| 20260509140543 | 76 | 184 | 1.0 | 4.0 | 0.00 | 0.03 | 0.01 | 82 | 1014.6 |
| 20260509140057 | 76 | 159 | 1.0 | 3.0 | 0.00 | 0.03 | 0.01 | 83 | 1015.0 |
| 20260509135548 | 76 | 254 | 1.0 | 3.0 | 0.00 | 0.03 | 0.01 | 84 | 1015.1 |
| 20260509135044 | 76 | 209 | 1.0 | 2.0 | 0.00 | 0.03 | 0.01 | 86 | 1015.0 |
| 20260509134548 | 76 | 307 | 0.0 | 3.0 | 0.00 | 0.03 | 0.01 | 86 | 1014.9 |
| 20260509134042 | 75 | 274 | 1.0 | 6.0 | 0.00 | 0.03 | 0.01 | 86 | 1014.9 |
| 20260509133543 | 75 | 239 | 1.0 | 6.0 | 0.00 | 0.03 | 0.01 | 86 | 1014.7 |
| 20260509133055 | 74 | 221 | 4.0 | 6.0 | 0.00 | 0.03 | 0.01 | 86 | 1014.5 |
| 20260509132543 | 74 | 202 | 2.0 | 6.0 | 0.00 | 0.03 | 0.01 | 85 | 1014.2 |
| 20260509132042 | 74 | 151 | 2.0 | 6.0 | 0.00 | 0.03 | 0.01 | 86 | 1014.2 |
| 20260509131548 | 74 | 67 | 1.0 | 3.0 | 0.00 | 0.03 | 0.01 | 86 | 1014.2 |
| 20260509131042 | 74 | 123 | 0.0 | 3.0 | 0.00 | 0.03 | 0.01 | 87 | 1014.1 |
| 20260509130544 | 74 | 152 | 1.0 | 7.0 | 0.00 | 0.03 | 0.01 | 87 | 1014.1 |
| 20260509130055 | 73 | 281 | 2.0 | 7.0 | 0.00 | 0.03 | 0.01 | 87 | 1014.2 |
| 20260509125542 | 74 | 289 | 2.0 | 6.0 | 0.00 | 0.03 | 0.01 | 87 | 1014.1 |
| 20260509125042 | 74 | 207 | 1.0 | 5.0 | 0.00 | 0.03 | 0.01 | 88 | 1014.2 |
| 20260509124559 | 73 | 150 | 2.0 | 5.0 | 0.00 | 0.03 | 0.01 | 88 | 1014.0 |
| 20260509124044 | 73 | 121 | 1.0 | 3.0 | 0.00 | 0.03 | 0.01 | 89 | 1014.0 |
| 20260509123542 | 73 | 190 | 1.0 | 3.0 | 0.00 | 0.03 | 0.01 | 89 | 1013.8 |
| 20260509123058 | 72 | 0 | 1.0 | 3.0 | 0.00 | 0.03 | 0.01 | 90 | 1013.8 |
| 20260509122548 | 72 | 307 | 1.0 | 4.0 | 0.00 | 0.03 | 0.01 | 91 | 1013.8 |
| 20260509122046 | 72 | 0 | 1.0 | 4.0 | 0.00 | 0.03 | 0.01 | 92 | 1013.8 |
| 20260509121602 | 71 | 151 | 1.0 | 4.0 | 0.00 | 0.03 | 0.01 | 93 | 1013.8 |
| 20260509121049 | 71 | 93 | 2.0 | 4.0 | 0.00 | 0.03 | 0.01 | 93 | 1013.8 |
| 20260509120547 | 70 | 150 | 0.0 | 3.0 | 0.00 | 0.03 | 0.01 | 93 | 1013.7 |
| 20260509120055 | 70 | 154 | 1.0 | 3.0 | 0.00 | 0.03 | 0.01 | 93 | 1013.8 |
| 20260509115549 | 69 | 98 | 0.0 | 2.0 | 0.00 | 0.03 | 0.01 | 93 | 1013.8 |
| 20260509115046 | 69 | 0 | 0.0 | 2.0 | 0.00 | 0.03 | 0.01 | 93 | 1013.7 |
| 20260509114607 | 68 | 272 | 0.0 | 2.0 | 0.00 | 0.03 | 0.01 | 93 | 1013.6 |
| 20260509114047 | 68 | 206 | 0.0 | 3.0 | 0.00 | 0.03 | 0.01 | 93 | 1013.5 |
| 20260509113550 | 68 | 0 | 0.0 | 3.0 | 0.00 | 0.03 | 0.01 | 93 | 1013.5 |
| 20260509113109 | 68 | 198 | 1.0 | 3.0 | 0.00 | 0.03 | 0.01 | 94 | 1013.5 |
| 20260509112546 | 67 | 207 | 1.0 | 2.0 | 0.00 | 0.03 | 0.01 | 93 | 1013.5 |
| 20260509112046 | 67 | 209 | 0.0 | 3.0 | 0.00 | 0.03 | 0.01 | 93 | 1013.5 |
| 20260509111555 | 67 | 222 | 0.0 | 3.0 | 0.00 | 0.03 | 0.01 | 94 | 1013.4 |